KA2QBS Weather Reports


Display with metric or nautical units.
time (UTC)temp
F
wind
direction
speed
MPH
gust
MPH
rain 1hr
in
rain 24hr
in
rain mn
in
humidity
%
barometer
mb
20260510021505 49 140 0.0 4.0 0.00 0.00 0.00 96 1010.1
20260510020005 49 143 0.0 0.0 0.00 0.00 0.00 96 1010.6
20260510014504 49 143 0.0 0.0 0.00 0.00 0.00 95 1010.3
20260510013003 50 130 1.0 7.0 0.00 0.00 0.00 96 1010.0
20260510011503 50 168 0.0 3.0 0.00 0.00 0.00 96 1010.3
20260510010003 50 202 0.0 0.0 0.00 0.00 0.00 95 1010.2
20260510004502 50 201 0.0 4.0 0.00 0.00 0.00 94 1009.9
20260510003002 51 120 3.0 9.0 0.00 0.00 0.00 93 1009.7
20260510001501 51 150 3.0 9.0 0.00 0.00 0.00 93 1009.5
20260510000000 52 140 1.0 7.0 0.00 0.00 0.00 93 1009.6
20260509234501 52 124 2.0 7.0 0.00 0.00 0.00 94 1009.7
20260509233100 52 150 0.0 0.0 0.00 0.00 0.00 95 1009.8
20260509231623 52 151 0.0 5.0 0.00 0.00 0.00 94 1009.7
20260509230108 52 145 1.0 5.0 0.00 0.00 0.00 94 1009.7
20260509224559 52 130 0.0 1.0 0.00 0.00 0.00 93 1009.4
20260509223110 52 130 1.0 7.0 0.00 0.00 0.00 93 1009.3
20260509221614 52 130 3.0 7.0 0.00 0.00 0.00 94 1009.5
20260509220055 52 132 4.0 7.0 0.00 0.00 0.00 95 1009.4
20260509214602 52 121 2.0 7.0 0.00 0.00 0.00 95 1009.6
20260509213053 52 157 0.0 6.0 0.00 0.00 0.00 96 1009.7
20260509211552 51 136 1.0 6.0 0.00 0.00 0.00 97 1009.6
20260509210050 51 128 2.0 7.0 0.00 0.00 0.00 97 1010.0
20260509204545 50 142 0.0 2.0 0.00 0.00 0.00 97 1010.1
20260509203045 50 142 0.0 0.0 0.00 0.00 0.00 97 1010.2
20260509201544 50 142 0.0 0.0 0.00 0.00 0.00 97 1010.3
20260509200047 50 142 0.0 4.0 0.00 0.00 0.00 97 1010.3
20260509194550 49 132 2.0 6.0 0.00 0.00 0.00 98 1010.4
20260509193040 49 155 1.0 6.0 0.00 0.00 0.00 97 1010.7
20260509191537 49 146 0.0 0.0 0.00 0.00 0.00 97 1010.9
20260509190035 48 146 0.0 0.0 0.00 0.00 0.00 97 1011.0
20260509184536 48 146 0.0 2.0 0.00 0.00 0.00 97 1011.0
20260509183043 48 145 0.0 0.0 0.00 0.00 0.00 97 1011.0
20260509181530 47 156 0.0 5.0 0.00 0.00 0.00 96 1011.2
20260509180028 47 155 0.0 3.0 0.00 0.00 0.00 97 1011.2
20260509174541 47 154 0.0 4.0 0.00 0.00 0.00 96 1011.1
20260509173026 47 146 0.0 5.0 0.00 0.00 0.00 96 1011.2
20260509171534 47 167 0.0 4.0 0.00 0.00 0.00 96 1011.5
20260509170025 47 161 0.0 4.0 0.00 0.00 0.00 96 1011.5
20260509164523 47 152 0.0 5.0 0.00 0.00 0.00 95 1011.7
20260509163032 46 141 0.0 7.0 0.00 0.00 0.00 96 1011.9
20260509161526 46 141 2.0 6.0 0.00 0.00 0.00 95 1012.0
20260509160017 46 174 0.0 5.0 0.00 0.00 0.00 95 1012.3
20260509154515 46 136 0.0 7.0 0.00 0.00 0.00 95 1012.6
20260509153021 45 140 2.0 6.0 0.00 0.00 0.00 96 1012.8
20260509151512 45 180 0.0 3.0 0.00 0.00 0.00 96 1012.9
20260509150021 45 159 0.0 3.0 0.00 0.00 0.00 96 1012.9
20260509144508 45 163 0.0 3.0 0.00 0.00 0.00 95 1013.0
20260509143008 45 160 0.0 4.0 0.00 0.00 0.00 96 1013.0
20260509141505 44 176 0.0 0.0 0.00 0.00 0.00 95 1013.0
20260509140006 44 176 0.0 2.0 0.00 0.00 0.00 94 1013.0
20260509134504 43 170 0.0 0.0 0.00 0.00 0.00 94 1013.1
20260509133005 43 169 0.0 0.0 0.00 0.00 0.00 93 1013.2
20260509131502 43 168 0.0 0.0 0.00 0.00 0.00 93 1013.0
20260509130002 42 165 0.0 5.0 0.00 0.00 0.00 92 1013.0
20260509124501 42 171 0.0 8.0 0.00 0.00 0.00 88 1013.1
20260509123124 43 159 0.0 0.0 0.00 0.00 0.00 85 1013.5
20260509121601 44 159 0.0 4.0 0.00 0.00 0.00 82 1013.6
20260509120101 44 157 1.0 7.0 0.00 0.00 0.00 77 1013.2
20260509114559 44 166 1.0 6.0 0.00 0.00 0.00 76 1013.5
20260509113103 44 155 1.0 9.0 0.00 0.00 0.00 76 1013.6
20260509111553 42 149 2.0 9.0 0.00 0.00 0.00 78 1013.5
20260509110052 41 297 0.0 0.0 0.00 0.00 0.00 79 1013.6
20260509104551 41 298 0.0 0.0 0.00 0.00 0.00 78 1013.5
20260509103058 42 163 0.0 9.0 0.00 0.00 0.00 76 1013.5
20260509101546 40 159 1.0 6.0 0.00 0.00 0.00 77 1013.2
20260509100051 39 145 0.0 5.0 0.00 0.00 0.00 77 1012.9
20260509094545 39 111 0.0 0.0 0.00 0.00 0.00 77 1013.1
20260509093044 39 111 1.0 3.0 0.00 0.00 0.00 76 1013.3
20260509091540 39 104 0.0 0.0 0.00 0.00 0.00 76 1013.5
20260509090047 39 104 0.0 0.0 0.00 0.00 0.00 77 1013.5
20260509084538 39 104 0.0 0.0 0.00 0.00 0.00 76 1013.6
20260509083035 39 103 0.0 5.0 0.00 0.00 0.00 76 1013.6
20260509081534 38 84 0.0 1.0 0.00 0.00 0.00 79 1013.7
20260509080033 38 80 0.0 3.0 0.00 0.00 0.00 78 1013.7
20260509074534 38 71 0.0 0.0 0.00 0.00 0.00 79 1013.7
20260509073035 38 71 0.0 1.0 0.00 0.00 0.00 80 1013.7
20260509071532 38 70 1.0 3.0 0.00 0.00 0.00 78 1013.7
20260509070031 38 63 0.0 0.0 0.00 0.00 0.00 78 1013.7
20260509064530 36 52 0.0 0.0 0.00 0.00 0.00 83 1013.7
20260509063028 36 51 0.0 0.0 0.00 0.00 0.00 83 1013.8
20260509061528 37 51 0.0 0.0 0.00 0.00 0.00 83 1014.1
20260509060030 35 51 0.0 0.0 0.00 0.00 0.00 86 1014.2
20260509054522 35 51 0.0 0.0 0.00 0.00 0.00 85 1014.5
20260509053021 37 51 0.0 1.0 0.00 0.00 0.00 83 1014.5
20260509051518 35 38 0.0 0.0 0.00 0.00 0.00 88 1014.8
20260509050038 34 38 0.0 0.0 0.00 0.00 0.00 88 1014.8
20260509044517 35 38 0.0 0.0 0.00 0.00 0.00 87 1014.8
20260509043015 35 38 0.0 0.0 0.00 0.00 0.00 87 1014.7
20260509041513 35 38 0.0 0.0 0.00 0.00 0.00 88 1014.7
20260509040010 35 38 0.0 0.0 0.00 0.00 0.00 86 1014.4
20260509034508 35 38 0.0 0.0 0.00 0.00 0.00 86 1014.4
20260509033007 35 38 2.0 4.0 0.00 0.00 0.00 85 1014.4
20260509031510 36 28 1.0 3.0 0.00 0.00 0.00 85 1014.5
20260509030005 36 28 0.0 0.0 0.00 0.00 0.00 86 1014.5
20260509024503 36 16 0.0 4.0 0.00 0.00 0.00 84 1014.5
20260509023007 37 11 0.0 0.0 0.00 0.00 0.00 82 1014.7